Home > Weather > Lustenau > Past weeks

Flag for Austria Past Weather in Lustenau, Vorarlberg, Austria — Yesterday and Last 2 Weeks

Now
64 °F

Partly sunny.


Feels Like: 64 °F
Forecast: 56 / 69 °F
Wind: 8 mph from West

Location: Saint Gallen-Altenrhein

Current Time: May 31, 2016 at 8:02:27 PM

Latest Report: May 31, 2016 at 7:20 PM


Visibility: N/A

Pressure: 29.89 "Hg

Humidity: 64%

Dew Point: 52 °F

Location of LustenauLocation

Past Weather in Lustenau — Graph

°F

Lustenau Temperature Yesterday

Maximum temperature yesterday: 66 °F (at 12:20 PM)
Minimum temperature yesterday: 55 °F (at 3:20 AM)
Average temperature yesterday: 61 °F

High & Low Weather Summary for the Past Weeks

 TemperatureHumidityPressure
High82 °F (May 22, 2:20 PM)100% (May 16, 8:50 PM)30.18 "Hg (May 16, 8:50 PM)
Low43 °F (May 25, 4:50 AM)18% (May 22, 7:20 PM)29.68 "Hg (May 29, 1:50 PM)
Average58 °F77%29.95 "Hg
* Reported May 16 6:20 PM — May 31 6:50 PM, Lustenau, Weather by CustomWeather, © 2016

Note: Actual official high and low records may vary slightly from our data, if they occured in-between our weather recording intervals... More about our weather records

Advertising

Lustenau Weather History for the Previous 24 Hours

Scroll right to see more
 ConditionsComfort  
Time TempWeatherWind HumidityBarometerVisibility
6:50 PM
Tue, May 31
66 °FPartly sunny.2 mph60%29.86 "HgN/A
6:20 PM66 °FScattered showers. Partly sunny.5 mph60%29.86 "HgN/A
5:50 PM66 °FScattered showers. Partly sunny.5 mph60%29.86 "HgN/A
5:20 PM66 °FScattered showers. Partly sunny.6 mph52%29.86 "HgN/A
4:50 PM66 °FScattered clouds.3 mph60%29.86 "HgN/A
4:20 PM68 °FScattered clouds.1 mph56%29.86 "HgN/A
3:50 PM66 °FPartly sunny.6 mph52%29.89 "HgN/A
3:20 PM66 °FBroken clouds.3 mph60%29.89 "HgN/A
2:50 PM66 °FBroken clouds.7 mph60%29.89 "HgN/A
2:20 PM64 °FScattered clouds.5 mph64%29.89 "HgN/A
1:50 PM64 °FScattered clouds.6 mph64%29.89 "HgN/A
1:20 PM63 °FScattered clouds.6 mph68%29.89 "HgN/A
12:50 PM61 °FScattered clouds.6 mph68%29.89 "HgN/A
12:20 PM63 °FPartly sunny.6 mph68%29.89 "HgN/A
11:50 AM63 °FPartly sunny.7 mph68%29.89 "HgN/A
11:20 AM61 °FPartly sunny.3 mph68%29.89 "HgN/A
10:50 AM61 °FPartly sunny.3 mph77%29.89 "HgN/A
10:20 AM61 °FPartly sunny.2 mph77%29.89 "HgN/A
9:50 AM59 °FPartly sunny.3 mph82%29.89 "HgN/A
9:20 AM61 °FPartly sunny.3 mph77%29.89 "HgN/A
8:50 AM59 °FPartly sunny.5 mph82%29.86 "HgN/A
8:20 AM57 °FPartly sunny.3 mph94%29.86 "HgN/A
7:50 AM57 °FPartly sunny.3 mph94%29.86 "HgN/A
7:20 AM57 °FPartly sunny.2 mph82%29.86 "HgN/A
6:50 AM55 °FPartly sunny.5 mph88%29.86 "HgN/A
6:20 AM55 °FPassing clouds.3 mph88%29.86 "HgN/A
5:50 AM54 °FOvercast.3 mph94%29.86 "HgN/A
5:20 AM50 °FPassing clouds.2 mph94%29.86 "HgN/A
4:50 AM50 °FClear.2 mph94%29.83 "Hg10 mi
4:20 AM52 °FClear.3 mph94%29.83 "Hg10 mi
3:50 AM52 °FClear.2 mph94%29.83 "Hg10 mi
3:20 AM54 °FClear.2 mph88%29.83 "Hg10 mi
2:50 AM54 °FClear.1 mph94%29.83 "Hg10 mi
2:20 AM54 °FCool.1 mph94%29.83 "HgN/A
1:50 AM57 °FPassing clouds.2 mph82%29.83 "HgN/A
1:20 AM59 °FPartly cloudy.1 mph82%29.83 "HgN/A
12:50 AM59 °FPartly cloudy.2 mph77%29.83 "HgN/A
12:20 AM59 °FMostly cloudy.3 mph77%29.83 "HgN/A
11:50 PM
Mon, May 30
61 °FOvercast.2 mph72%29.83 "HgN/A
11:20 PM59 °FPassing clouds.5 mph77%29.83 "HgN/A
10:50 PM59 °FPassing clouds.1 mph88%29.83 "HgN/A
10:20 PM59 °FMostly cloudy.2 mph88%29.83 "HgN/A
9:50 PM61 °FMostly cloudy.1 mph88%29.83 "HgN/A
9:20 PM61 °FMore clouds than sun.2 mph83%29.83 "HgN/A
8:50 PM63 °FPartly sunny.3 mph73%29.80 "HgN/A
8:20 PM63 °FPartly sunny.3 mph77%29.80 "HgN/A
Weather by CustomWeather, © 2016

See weather overviewHow to use our weather pages